Date,TemperatureHighF,TemperatureAvgF,TemperatureLowF,DewpointHighF,DewpointAvgF,DewpointLowF,HumidityHigh,HumidityAvg,HumidityLow,PressureMaxIn,PressureMinIn,WindSpeedMaxMPH,WindSpeedAvgMPH,GustSpeedMaxMPH,PrecipitationSumIn
2013-2-8,51.3,36.6,27.1,22.8,16.7,13.1,60,45,27,30.32,30.14,15,3,15,0.24
2013-2-9,27.3,27.3,27.3,15.3,15.3,15.3,60,60,60,30.32,30.32,0,0,0,0.00
2013-2-11,35.2,34.4,34.0,19.7,18.4,17.3,55,52,49,29.70,29.64,34,16,34,0.04
2013-2-12,38.8,33.4,29.7,17.6,16.0,13.6,57,49,39,30.05,29.93,14,4,14,0.08
2013-2-13,56.8,36.3,26.8,22.5,18.2,14.0,61,49,26,29.93,29.70,19,3,19,0.00
2013-2-14,41.4,36.8,33.3,29.7,24.6,18.1,73,61,49,29.91,29.67,28,7,28,0.00
2013-2-15,46.0,32.3,24.8,20.6,14.1,5.5,63,47,28,30.14,29.91,14,4,14,0.00
2013-2-16,33.8,23.3,15.6,16.6,8.1,-1.3,70,53,30,30.11,30.02,15,4,15,0.00
2013-2-17,49.1,24.8,11.8,13.9,5.6,-0.6,64,45,22,30.20,30.08,13,2,13,0.00
2013-2-18,55.0,39.1,25.3,39.8,21.2,6.0,78,49,35,30.11,29.49,22,6,22,0.08
2013-2-19,46.4,24.3,16.3,42.5,14.5,3.4,88,66,49,30.02,29.43,28,11,32,0.04
2013-2-20,28.2,22.5,16.5,11.7,9.1,5.9,74,56,43,30.29,30.02,16,6,16,0.00
2013-2-21,37.6,28.9,24.1,15.5,11.6,8.7,55,48,40,30.35,30.11,20,5,20,0.00
2013-2-22,37.2,31.2,24.1,32.2,20.9,9.4,86,66,53,30.11,29.82,19,7,20,0.00
2013-2-23,33.4,28.8,25.9,18.7,14.6,10.2,68,56,40,29.93,29.88,19,8,19,0.00
2013-2-24,63.1,33.1,24.8,24.0,16.3,12.8,71,52,21,30.14,29.91,15,5,15,0.08
2013-2-25,65.8,38.1,23.9,26.0,17.7,10.5,66,46,20,30.20,30.02,12,2,12,0.00
2013-2-26,38.7,36.4,33.4,29.5,22.9,16.5,73,58,42,30.02,29.46,21,7,21,0.39
2013-2-27,38.8,36.9,35.8,33.1,30.9,29.3,86,79,72,29.58,29.43,11,4,11,0.31
2013-2-28,44.8,38.7,36.3,33.0,26.7,22.6,84,62,44,29.96,29.58,13,5,13,0.04